Flag for U.S.A. Weather past 2 weeks in Bloomington, Illinois, U.S.A.

Now
55 °F

Passing clouds.


Feels Like: 54 °F
Forecast: 42 / 57 °F
Wind: 6 mph from Northwest

Location: Bloomington / Normal

Current Time: Oct 20, 2014 at 10:02:40 PM

Latest Report: Oct 20, 2014 at 8:56 PM


Visibility: 10 mi

Pressure: 29.99 "Hg

Humidity: 69%

Dew point: 45 °F

Location of BloomingtonLocation

Historic Weather in Bloomington — Graph

°F

Bloomington temperature yesterday

Maximum temperature yesterday: 59 °F (at 2:56 PM)
Minimum temperature yesterday: 35 °F (at 6:56 AM)
Average temperature yesterday: 48 °F

Past Weeks' High & Low Weather Summary

 TemperatureHumidityPressure
High70 °F (Oct 7, 2:56 PM)100% (Oct 12, 6:56 PM)30.27 "Hg (Oct 12, 6:56 PM)
Low35 °F (Oct 19, 6:56 AM)33% (Oct 7, 9:56 AM)29.44 "Hg (Oct 14, 11:56 AM)
Average55 °F80%29.89 "Hg
* Reported Oct 5 8:56 PM — Oct 20 8:56 PM, Bloomington, Weather by CustomWeather, © 2014

Note: Actual official high and low records may vary slightly from our data, if they occured in-between our weather recording intervals... More about our weather records

Advertising

Bloomington weather history for previous 24 hours

 ConditionsComfort  
Time TempWeatherWind HumidityBarometerVisibility
8:56 PM
Oct 20
55 °FPassing clouds.6 mph69%29.99 "Hg10 mi
7:56 PM55 °FPassing clouds.6 mph69%29.98 "Hg10 mi
6:56 PM58 °FSunny.7 mph62%29.97 "Hg10 mi
5:56 PM62 °FSunny.10 mph54%29.95 "Hg10 mi
4:56 PM65 °FPassing clouds.15 mph47%29.93 "Hg10 mi
3:56 PM67 °FPassing clouds.15 mph47%29.90 "Hg10 mi
2:56 PM66 °FPassing clouds.15 mph51%29.90 "Hg10 mi
1:56 PM66 °FSunny.20 mph51%29.90 "Hg10 mi
12:56 PM65 °FSunny.16 mph54%29.89 "Hg10 mi
11:56 AM64 °FSunny.16 mph56%29.90 "Hg10 mi
10:56 AM60 °FSunny.10 mph64%29.91 "Hg10 mi
9:56 AM57 °FSunny.15 mph72%29.92 "Hg10 mi
8:56 AM53 °FSunny.14 mph83%29.91 "Hg10 mi
7:56 AM50 °FClear.10 mph89%29.89 "Hg10 mi
6:56 AM48 °FClear.10 mph93%29.90 "Hg10 mi
5:56 AM49 °FClear.13 mph89%29.89 "Hg10 mi
4:56 AM50 °FClear.12 mph86%29.89 "Hg10 mi
3:56 AM50 °FClear.10 mph86%29.90 "Hg10 mi
2:56 AM50 °FClear.10 mph86%29.92 "Hg10 mi
1:56 AM49 °FClear.8 mph89%29.94 "Hg10 mi
12:56 AM51 °FClear.10 mph83%29.97 "Hg10 mi
11:56 PM
Oct 19
53 °FPassing clouds.13 mph77%29.99 "Hg10 mi
Weather by CustomWeather, © 2014

See weather overviewHow to use our weather pages